#timestamp,LO_Frequency,Hit,StdDev 
1514480415.4,286046984.6,N
1514480435.2,286046981.8,N
1514480455.0,286046977.4,N
1514480455.9,286046977.4,N
1514480475.8,286046975.3,N
1514480495.6,286046970.4,N
1514480515.4,286046967.3,N
1514480535.3,286046964.3,N
1514480555.1,286046956.9,Y
1514480556.0,286046956.9,P
1514480575.8,286046958.7,N
1514480595.7,286046955.9,N
1514480615.5,286046952.5,Y
1514480635.3,286046986.6,P
1514480655.2,286046982.6,N
1514480675.0,286046981.2,N
1514480675.9,286046981.2,N
1514480695.8,286046978.5,Y
1514480715.6,286046996.8,P
1514480735.4,286046997.7,N
1514480755.2,286046996.4,N
1514480775.1,286046994.1,N
1514480776.0,286046994.1,N
1514480795.8,286046992.2,N
1514480815.6,286046994.7,N
1514480835.5,286046991.8,N
1514480855.3,286046991.8,N
1514480875.1,286046991.1,N
1514480895.9,286046990.7,N
1514480915.7,286046991.4,N
1514480935.5,286046991.6,N
1514480955.4,286046991.7,N
1514480975.2,286046990.7,N
1514480995.0,286046988.9,N
1514480995.9,286046988.9,N
1514481015.8,286046988.0,Y
1514481035.6,286046995.2,P
1514481055.4,286046992.5,P
1514481075.2,286046992.1,P
1514481095.1,286046994.3,Y
1514481096.0,286046994.3,P
1514481115.8,286047000.9,N
1514481135.7,286046999.1,N
1514481155.5,286046997.0,N
1514481175.3,286046997.3,N
1514481195.1,286046999.6,N
1514481215.9,286046995.0,N
1514481235.7,286046997.8,N
1514481255.5,286046999.5,N
1514481275.4,286047003.8,N
1514481295.2,286047004.1,N
1514481315.0,286047003.0,N
1514481316.0,286047003.0,N
1514481335.8,286047005.3,N
1514481355.6,286047002.5,N
1514481375.4,286046996.7,N
1514481395.3,286046995.6,N
1514481415.1,286046995.2,N
1514481435.8,286046995.4,N
1514481455.7,286047002.7,N
1514481475.5,286047002.8,N
1514481495.3,286047005.3,N
1514481515.2,286047005.8,N
1514481535.9,286047000.0,N
1514481555.7,286046999.3,N
1514481575.6,286046995.4,N
1514481595.4,286046993.3,N
1514481615.2,286046991.2,N
1514481635.1,286046985.4,Y
1514481636.0,286046985.4,P
1514481655.8,286046988.2,N
1514481675.6,286046987.9,N
1514481695.4,286046985.9,N
1514481715.3,286046979.2,Y
1514481735.1,286046985.3,P
1514481755.8,286046988.4,P
1514481775.7,286046987.6,P
1514481795.5,286046983.7,Y
1514481815.4,286046999.3,P
1514481835.2,286046996.4,N
1514481855.0,286046992.3,N
1514481855.9,286046992.3,N
1514481875.7,286046993.2,N
1514481895.6,286046993.9,N
1514481915.4,286046997.6,N
1514481935.2,286046999.6,N
1514481955.1,286046999.2,N
1514481956.0,286046999.2,N
1514481975.8,286046997.1,N
1514481995.6,286046992.3,N
1514482015.5,286046991.2,N
1514482035.3,286046989.8,N
1514482055.1,286046992.7,N
1514482075.9,286046991.9,N
1514482095.7,286046993.6,N
1514482115.5,286046990.2,N
1514482135.3,286046991.6,N
1514482155.2,286046990.4,N
1514482175.0,286046993.1,N
1514482175.9,286046993.1,N
1514482195.7,286046995.1,N
1514482215.6,286046999.5,N
1514482235.4,286046999.0,N
1514482255.2,286046996.4,N
1514482275.1,286046992.9,N
1514482276.0,286046992.9,N
1514482295.8,286046991.5,N
1514482315.6,286046991.5,N
1514482335.5,286046988.8,Y
1514482355.3,286046996.5,P
1514482375.1,286046999.4,N
1514482395.9,286046998.5,N
1514482415.7,286047003.1,N
1514482435.5,286047000.3,N
1514482455.4,286047000.7,N
1514482475.2,286047000.9,N
1514482495.0,286046996.8,N
1514482495.9,286046996.8,N
1514482515.8,286046998.8,N
1514482535.6,286046999.0,N
1514482555.4,286047001.1,N
1514482575.2,286047000.6,N
1514482595.1,286046996.5,N
1514482596.0,286046996.5,N
1514482615.8,286046995.9,N
1514482635.6,286046999.4,N
1514482655.5,286046997.0,N
1514482675.3,286046997.7,N
1514482695.1,286047000.5,N
1514482715.9,286047002.0,N
1514482735.7,286047003.3,N
1514482755.5,286047002.9,N
1514482775.4,286047005.6,N
1514482795.2,286047007.1,N
1514482815.0,286047006.7,N
1514482815.9,286047006.7,N
1514482835.8,286047010.9,Y
1514482855.6,286047013.8,P
1514482875.4,286047010.4,N
1514482895.2,286047009.0,N
1514482915.1,286047006.4,N
1514482916.0,286047006.4,N
1514482935.8,286047003.4,N
1514482955.6,286047003.6,N
1514482975.5,286047006.3,N
1514482995.3,286047008.4,N
1514483015.1,286047011.3,Y
1514483035.9,286047002.3,P
1514483055.7,286047000.3,N
1514483075.5,286046998.2,N
1514483095.4,286046998.2,N
1514483115.2,286046998.5,N
1514483135.0,286046997.4,N
1514483135.9,286046997.4,N
1514483155.8,286046996.2,N
1514483175.6,286046996.4,N
1514483195.4,286046995.5,N
1514483215.3,286046995.5,N
1514483235.1,286046993.4,N
1514483236.0,286046993.4,N
1514483255.8,286046996.9,N
1514483275.7,286046997.1,N
1514483295.5,286046997.0,N
1514483315.3,286046999.1,N
1514483335.1,286047001.0,N
1514483355.9,286047003.3,N
1514483375.7,286047003.7,N
1514483395.5,286047008.5,N
1514483415.4,286047006.6,N
1514483435.2,286047006.3,N
1514483455.0,286047008.0,N
1514483455.9,286047008.0,N
1514483475.8,286047008.7,N
1514483495.6,286047008.6,N
1514483515.4,286047005.2,N
1514483535.3,286047005.4,N
1514483555.1,286047005.3,N
1514483556.0,286047005.3,N
1514483575.8,286047003.7,N
1514483595.7,286047006.0,N
1514483615.5,286047006.2,N
1514483635.3,286047007.8,N
1514483655.1,286047007.7,N
1514483675.9,286047010.1,N
1514483695.7,286047009.3,N
1514483715.5,286047010.1,N
1514483735.4,286047010.5,N
1514483755.2,286047008.5,N
1514483775.0,286047010.5,N
1514483775.9,286047010.5,N
1514483795.8,286047010.0,N
1514483815.6,286047010.4,N
1514483835.4,286047009.5,N
1514483855.3,286047013.9,Y
1514483875.1,286047008.8,P
1514483895.8,286047006.7,P
1514483915.7,286047008.0,P
1514483935.5,286047008.7,Y
1514483955.3,286047000.1,P
1514483975.2,286047000.3,N
1514483995.9,286046998.4,N
